Retour au catalogue

STARLINK-11597

ActifCommunicationsVLEO
NORAD 63115·PAYLOAD·🇺🇸 United States

Lancé Feb 27, 2025 depuis Cape Canaveral Space Force Station

Loading…

Prochains Passages (prochaines 24 heures)

TLE

FraisSource: CelesTrak SupGP

Époque: Sep 15, 2026, 03:20 UTC

1 63115C 25039M   26258.13937500 -.00007840  00000+0 -60918-4 0  2582
2 63115  43.0005 174.5913 0001507 264.8599 125.1205 15.70833037    10

Suivez STARLINK-11597 en temps réel avec AllMySat

Download on the App Store